Terminal Aerodrome Forecast
Issued by NWS

Home | Current Version | Previous Version | Graphics & Text | Print | Product List | Glossary On
Versions: 1 2 3 4 5 6 7 8 9 10 11 12 13 14
000
FTUS43 KGRB 042326
TAFCWA
TAF
KCWA 042326Z 0500/0524 21005KT 6SM FU SCT040 SCT250
     FM050200 16003KT 5SM FU SCT250
      TEMPO 0509/0513 3SM BR
     FM051400 20008KT 6SM HZ SCT040
     FM051900 19010G18KT P6SM SCT045=

USA.gov is the U.S. government's official web portal to all federal, state and local government web resources and services.